Miscellaneous Local Product
Issued by NWS North Platte, NE

Home | Current Version | Previous Version | Graphics & Text | Print | Product List | Glossary On
Versions: 1 2 3 4 5 6 7 8 9 10 11 12 13 14 15 16 17 18 19 20 21 22 23 24 25 26 27 28 29 30 31 32 33 34 35 36 37 38 39 40 41 42 43 44 45 46 47 48 49 50
000
AXUS43 KLBF 221910
MISLBF


WESTERN AND NORTH CENTRAL NEBRASKA HOURLY WEATHER ROUNDUP
NATIONAL WEATHER SERVICE NORTH PLATTE NE
100 PM CST MON DEC 22 2014

***STATIONS NOT REPORTING VARIABLES SUCH AS SKY/WEATHER OR
PRESSURE ARE PROVIDED BY THE NEBRASKA DEPARTMENT OF
ROADS...RAWS...AND APRS NETWORKS...AND ARE NOT UNDER
NATIONAL WEATHER SERVICE QUALITY CONTROL***

...OBSERVATIONS IN AND NEAR THE EASTERN PANHANDLE OF NEBRASKA...

CITY           SKY/WX    TMP DP  RH WIND       PRES   REMARKS
PINE RIDGE     CLOUDY    43  24  47 W24G33    29.53F
CHADRON        SUNNY     41  24  51 NW23G41   29.59F
ALLIANCE       SUNNY     40  24  53 NW23G30   29.57F WCI  30
SIDNEY         MOSUNNY   39  22  50 NW25G35   29.63F WCI  28
WHITECLAY        N/A     40  22  48 W21         N/A  WCI  31
CRESCENT LAKE    N/A     41  24  51 NW20G31     N/A
LISCO            N/A     42  22  44 W20         N/A
BIG SPRINGS      N/A     42  28  58 NW12        N/A
$$

...OBSERVATIONS IN NORTH CENTRAL NEBRASKA...

CITY           SKY/WX    TMP DP  RH WIND       PRES   REMARKS
VALENTINE      CLOUDY    39  30  70 NW23G33   29.48F WCI  28
THEDFORD       MOSUNNY   44  29  56 NW21G28   29.50F
AINSWORTH      CLOUDY    37  30  75 NW22G32   29.48F WCI  27
O`NEILL        CLOUDY    39  37  90 NW16      29.45F WCI  30
BROKEN BOW     MOSUNNY   45  30  55 NW28G41   29.48F
BROWNLEE         N/A     42  25  51 NW28        N/A
SPRINGVIEW       N/A     37  33  85 W10G18      N/A  WCI  30
BREWSTER         N/A     43  29  57 W22         N/A
ROSE             N/A     39  35  85 SW13        N/A  WCI  31
SARGENT          N/A     43  33  68 N9G22       N/A
COMSTOCK         N/A     46  32  58 NW20        N/A
CHAMBERS         N/A     40  34  78 NW10G24     N/A  WCI  33
EWING            N/A     41  38  91 CALM        N/A
$$

...OBSERVATIONS IN SOUTHWEST NEBRASKA AND FAR NORTHEAST COLORADO...

CITY           SKY/WX    TMP DP  RH WIND       PRES   REMARKS
WRAY           FAIR      42  28  56 NW17      29.67F
HOLYOKE        FAIR      43  27  52 NW13G18   29.63F
IMPERIAL       SUNNY     45  24  43 NW29G36   29.60F
OGALLALA       SUNNY     42  28  56 NW20G28   29.59F
NORTH PLATTE   SUNNY     47  26  44 NW22G30   29.54F
MCCOOK         MOSUNNY   49  27  42 NW28G35   29.57F
LEXINGTON      MOSUNNY   46  32  56 NW17      29.52F
PAXTON           N/A     43  32  65 W13         N/A
BRADY            N/A     46  29  51 S7G20       N/A
GOTHENBURG       N/A     47  24  40 NW17        N/A
CALLAWAY         N/A     45  31  58 NW24        N/A
$$

...NORTH PLATTE AREA...

CITY           SKY/WX    TMP DP  RH WIND       PRES   REMARKS
AIRPORT        SUNNY     47  26  44 NW22G30   29.54F
DOWNTOWN         N/A     46  27  47 N12G20      N/A
$$

...SOME WEATHER OBSERVATIONS FROM AROUND THE REGION...

CITY           SKY/WX    TMP DP  RH WIND       PRES   REMARKS
DENVER         CLOUDY    35  25  66 NE7       29.68F WCI  29
LARAMIE        SNOW      23  21  92 NW17G25   29.67S VSB 1/4 WCI   9
CHEYENNE       CLOUDY    30  20  66 NW15G24   29.67F WCI  19
SCOTTSBLUFF    SUNNY     40  24  53 NW22G32   29.63F WCI  30
RAPID CITY     PTSUNNY   44  22  41 NW41G51   29.50S
PIERRE         CLOUDY    36  29  75 NW31G39   29.43F WCI  23
WINNER         LGT RAIN  37  34  89 W14       29.46S WCI  28
SIOUX FALLS    CLOUDY    39  38  96 CALM      29.40F
OMAHA          LGT RAIN  43  41  93 S10       29.44F FOG
GRAND ISLAND   CLOUDY    45  33  63 NW22G29   29.47F
KANSAS CITY    LGT RAIN  44  44 100 S9        29.47F VSB 1
WICHITA        PTSUNNY   51  40  65 N17       29.54F
HAYS           MOSUNNY   52  28  40 NW21G26   29.57F
LIBERAL        PTSUNNY   50  32  50 NW23G30   29.69F
GOODLAND       SUNNY     47  23  38 NW24G35   29.64F
$$



USA.gov is the U.S. government's official web portal to all federal, state and local government web resources and services.